RYR72SC LIBR-EDJA

Flight info

Callsign RYR72SC
Flight time 1h 41m
Altitude 38000
Route ENOXA DCT AIOSA DCT ZDA DCT GIRDA DCT PESUT DCT VEKEN DCT ERKIR L608 KPT KPT1C
Aircraft B738/M-SDE2E3FGHIRWXY/LB1

Departure

Time 2026-04-29 00:50
Airport Brindisi Airport (LIBR)

Arrival

Time 2026-04-29 02:31
Airport Memmingen Allgau Airport (EDJA)
Time Latitude Longitude Altitude Speed Heading
2026-04-29 00:17 40.65639 17.93837 41 ft 0 kts
2026-04-29 00:41 40.65643 17.93838 41 ft 1 kts
2026-04-29 00:42 40.65651 17.93851 41 ft 3 kts 80°
2026-04-29 00:42 40.65633 17.93872 40 ft 4 kts 162°
2026-04-29 00:42 40.65602 17.93900 40 ft 5 kts 106°
2026-04-29 00:42 40.65597 17.93951 39 ft 6 kts 72°
2026-04-29 00:43 40.65622 17.94002 38 ft 7 kts 54°
2026-04-29 00:43 40.65659 17.94068 37 ft 10 kts 53°
2026-04-29 00:43 40.65710 17.94154 35 ft 13 kts 52°
2026-04-29 00:43 40.65774 17.94265 34 ft 18 kts 55°
2026-04-29 00:44 40.65866 17.94422 31 ft 24 kts 52°
2026-04-29 00:44 40.65970 17.94602 27 ft 25 kts 52°
2026-04-29 00:44 40.66070 17.94695 25 ft 15 kts 337°
2026-04-29 00:44 40.66151 17.94599 25 ft 16 kts 316°
2026-04-29 00:45 40.66240 17.94491 24 ft 20 kts 317°
2026-04-29 00:45 40.66347 17.94361 22 ft 22 kts 319°
2026-04-29 00:45 40.66470 17.94209 21 ft 25 kts 317°
2026-04-29 00:45 40.66605 17.94044 24 ft 26 kts 318°
2026-04-29 00:46 40.66735 17.93885 25 ft 25 kts 316°
2026-04-29 00:46 40.66861 17.93733 26 ft 23 kts 318°
2026-04-29 00:46 40.66981 17.93587 27 ft 23 kts 317°
2026-04-29 00:46 40.67097 17.93444 27 ft 24 kts 316°
2026-04-29 00:47 40.67222 17.93289 28 ft 24 kts 317°
2026-04-29 00:47 40.67352 17.93134 27 ft 25 kts 318°
2026-04-29 00:47 40.67484 17.92973 26 ft 25 kts 316°
2026-04-29 00:47 40.67611 17.92816 26 ft 22 kts 311°
2026-04-29 00:48 40.67631 17.92718 28 ft 7 kts 248°
2026-04-29 00:48 40.67602 17.92668 28 ft 6 kts 229°
2026-04-29 00:48 40.67563 17.92615 28 ft 8 kts 206°
2026-04-29 00:48 40.67515 17.92638 28 ft 7 kts 138°
2026-04-29 00:49 40.67476 17.92684 28 ft 7 kts 137°
2026-04-29 00:49 40.67395 17.92786 28 ft 41 kts 136°
2026-04-29 00:49 40.66949 17.93336 28 ft 132 kts 138°
2026-04-29 00:49 40.66116 17.94357 325 ft 182 kts 139°
2026-04-29 00:50 40.65200 17.95456 1453 ft 180 kts 140°
2026-04-29 00:50 40.64281 17.96509 2344 ft 181 kts 140°
2026-04-29 00:50 40.63301 17.97631 2908 ft 198 kts 139°
2026-04-29 00:50 40.62235 17.98875 3600 ft 211 kts 139°
2026-04-29 00:51 40.61117 18.00187 4234 ft 226 kts 139°
2026-04-29 00:51 40.60013 18.01732 4830 ft 243 kts 122°
2026-04-29 00:51 40.59420 18.03863 5471 ft 259 kts 98°
2026-04-29 00:51 40.59484 18.06253 6209 ft 271 kts 79°
2026-04-29 00:52 40.60109 18.08611 7073 ft 277 kts 60°
2026-04-29 00:52 40.61382 18.10451 7939 ft 281 kts 33°
2026-04-29 00:52 40.63179 18.11421 8825 ft 284 kts 11°
2026-04-29 00:52 40.65134 18.11546 9650 ft 288 kts 352°
2026-04-29 00:53 40.67016 18.10718 10510 ft 289 kts 331°
2026-04-29 00:53 40.68737 18.09320 11333 ft 292 kts 325°
2026-04-29 00:53 40.70403 18.07818 12163 ft 295 kts 324°
2026-04-29 00:53 40.71953 18.06038 12690 ft 306 kts 307°
2026-04-29 00:54 40.73016 18.03527 13190 ft 320 kts 293°
2026-04-29 00:54 40.73853 18.00765 13642 ft 334 kts 291°
2026-04-29 00:54 40.74694 17.97860 14345 ft 341 kts 291°
2026-04-29 00:54 40.75568 17.94970 15129 ft 344 kts 292°
2026-04-29 00:55 40.76547 17.92119 15873 ft 348 kts 298°
2026-04-29 00:55 40.77935 17.89506 16590 ft 352 kts 314°
2026-04-29 00:55 40.79881 17.87581 17349 ft 355 kts 330°
2026-04-29 00:55 40.82175 17.86250 18073 ft 359 kts 338°
2026-04-29 00:56 40.84490 17.85116 18735 ft 363 kts 339°
2026-04-29 00:56 40.86902 17.83960 19398 ft 367 kts 339°
2026-04-29 00:56 40.89288 17.82794 20066 ft 370 kts 338°
2026-04-29 00:56 40.91695 17.81590 20712 ft 373 kts 338°
2026-04-29 00:57 40.94117 17.80359 21329 ft 376 kts 338°
2026-04-29 00:57 40.96566 17.79104 21945 ft 379 kts 338°
2026-04-29 00:57 40.99034 17.77831 22541 ft 382 kts 338°
2026-04-29 00:57 41.01483 17.76565 23093 ft 386 kts 338°
2026-04-29 00:58 41.03995 17.75265 23686 ft 388 kts 338°
2026-04-29 00:58 41.06530 17.73953 24220 ft 392 kts 338°
2026-04-29 00:58 41.09052 17.72648 24728 ft 396 kts 338°
2026-04-29 00:58 41.11621 17.71318 25319 ft 397 kts 338°
2026-04-29 00:59 41.14210 17.69977 25789 ft 401 kts 338°
2026-04-29 00:59 41.16829 17.68621 26333 ft 403 kts 338°
2026-04-29 00:59 41.19429 17.67275 26811 ft 406 kts 338°
2026-04-29 00:59 41.22067 17.65880 27301 ft 409 kts 336°
2026-04-29 01:00 41.24665 17.64430 27765 ft 412 kts 336°
2026-04-29 01:00 41.27307 17.62910 28258 ft 414 kts 335°
2026-04-29 01:00 41.29961 17.61367 28756 ft 415 kts 335°
2026-04-29 01:00 41.32593 17.59834 29188 ft 418 kts 335°
2026-04-29 01:01 41.35248 17.58290 29635 ft 420 kts 335°
2026-04-29 01:01 41.37955 17.56720 30026 ft 424 kts 335°
2026-04-29 01:01 41.40655 17.55158 30453 ft 426 kts 335°
2026-04-29 01:01 41.43394 17.53575 30833 ft 429 kts 335°
2026-04-29 01:02 41.46127 17.51997 31304 ft 429 kts 335°
2026-04-29 01:02 41.48843 17.50429 31948 ft 426 kts 335°
2026-04-29 01:02 41.51517 17.48886 32582 ft 422 kts 335°
2026-04-29 01:02 41.54213 17.47329 33041 ft 422 kts 335°
2026-04-29 01:03 41.56875 17.45790 33550 ft 420 kts 335°
2026-04-29 01:03 41.59568 17.44231 34063 ft 418 kts 335°
2026-04-29 01:03 41.62195 17.42710 34529 ft 416 kts 335°
2026-04-29 01:03 41.64859 17.41166 34921 ft 414 kts 335°
2026-04-29 01:04 41.67500 17.39633 35298 ft 413 kts 335°
2026-04-29 01:04 41.70100 17.38122 35625 ft 413 kts 335°
2026-04-29 01:04 41.72727 17.36594 35984 ft 411 kts 334°
2026-04-29 01:04 41.75347 17.35069 36326 ft 410 kts 334°
2026-04-29 01:05 41.77929 17.33565 36674 ft 409 kts 334°
2026-04-29 01:05 41.80555 17.32034 37053 ft 409 kts 334°
2026-04-29 01:05 41.83126 17.30534 37497 ft 407 kts 333°
2026-04-29 01:05 41.85715 17.29024 37896 ft 406 kts 333°
2026-04-29 01:06 41.88304 17.27511 38021 ft 409 kts 333°
2026-04-29 01:06 41.93456 17.24354 38021 ft 405 kts 329°
2026-04-29 01:07 41.98307 17.20524 38015 ft 402 kts 325°
2026-04-29 01:07 42.03007 17.16501 38022 ft 402 kts 325°
2026-04-29 01:08 42.07703 17.12487 38032 ft 401 kts 325°
2026-04-29 01:08 42.12435 17.08477 38030 ft 402 kts 325°
2026-04-29 01:09 42.17171 17.04483 38029 ft 402 kts 325°
2026-04-29 01:09 42.21914 17.00486 38027 ft 402 kts 325°
2026-04-29 01:10 42.26653 16.96486 38032 ft 402 kts 325°
2026-04-29 01:10 42.31350 16.92517 38026 ft 401 kts 326°
2026-04-29 01:11 42.36072 16.88520 38026 ft 401 kts 326°
2026-04-29 01:11 42.40806 16.84505 38030 ft 402 kts 326°
2026-04-29 01:12 42.45540 16.80482 38027 ft 403 kts 326°
2026-04-29 01:12 42.50254 16.76469 38023 ft 401 kts 326°
2026-04-29 01:13 42.54981 16.72438 38026 ft 401 kts 325°
2026-04-29 01:13 42.59685 16.68419 38026 ft 401 kts 325°
2026-04-29 01:14 42.64395 16.64388 38029 ft 400 kts 325°
2026-04-29 01:14 42.69099 16.60354 38026 ft 401 kts 325°
2026-04-29 01:15 42.73807 16.56310 38027 ft 401 kts 325°
2026-04-29 01:15 42.78500 16.52272 38025 ft 401 kts 325°
2026-04-29 01:16 42.83198 16.48222 38030 ft 401 kts 325°
2026-04-29 01:16 42.87891 16.44169 38025 ft 400 kts 325°
2026-04-29 01:17 42.92577 16.40116 38029 ft 400 kts 325°
2026-04-29 01:17 42.97285 16.36035 38031 ft 400 kts 325°
2026-04-29 01:18 43.01947 16.31986 38026 ft 400 kts 324°
2026-04-29 01:18 43.08978 16.25867 38035 ft 400 kts 324°
2026-04-29 01:19 43.13663 16.21779 38037 ft 399 kts 324°
2026-04-29 01:19 43.18335 16.17696 38031 ft 398 kts 324°
2026-04-29 01:20 43.23000 16.13612 38032 ft 399 kts 324°
2026-04-29 01:20 43.27676 16.09510 38032 ft 399 kts 324°
2026-04-29 01:21 43.32331 16.05419 38032 ft 398 kts 324°
2026-04-29 01:21 43.36984 16.01321 38030 ft 399 kts 324°
2026-04-29 01:22 43.41651 15.97204 38032 ft 397 kts 324°
2026-04-29 01:22 43.46301 15.93095 38039 ft 399 kts 324°
2026-04-29 01:23 43.50943 15.88986 38041 ft 398 kts 324°
2026-04-29 01:23 43.55581 15.84873 38040 ft 397 kts 324°
2026-04-29 01:24 43.60231 15.80741 38041 ft 398 kts 324°
2026-04-29 01:24 43.64874 15.76608 38039 ft 396 kts 324°
2026-04-29 01:25 43.69490 15.72490 38038 ft 398 kts 324°
2026-04-29 01:25 43.74111 15.68361 38037 ft 397 kts 324°
2026-04-29 01:26 43.78753 15.64206 38037 ft 396 kts 324°
2026-04-29 01:26 43.83354 15.60079 38037 ft 396 kts 324°
2026-04-29 01:27 43.87967 15.55934 38040 ft 396 kts 324°
2026-04-29 01:27 43.92591 15.51769 38039 ft 397 kts 324°
2026-04-29 01:28 43.97219 15.47596 38040 ft 396 kts 324°
2026-04-29 01:28 44.01805 15.43452 38040 ft 396 kts 324°
2026-04-29 01:29 44.06441 15.39254 38042 ft 396 kts 324°
2026-04-29 01:29 44.11039 15.35101 38044 ft 395 kts 324°
2026-04-29 01:30 44.15686 15.31048 38045 ft 396 kts 324°
2026-04-29 01:30 44.20336 15.27036 38051 ft 395 kts 324°
2026-04-29 01:31 44.24991 15.23003 38052 ft 396 kts 324°
2026-04-29 01:31 44.29676 15.18925 38052 ft 395 kts 324°
2026-04-29 01:32 44.34320 15.14869 38053 ft 395 kts 324°
2026-04-29 01:32 44.38982 15.10786 38073 ft 394 kts 324°
2026-04-29 01:33 44.43614 15.06721 38063 ft 395 kts 324°
2026-04-29 01:33 44.48239 15.02655 38068 ft 394 kts 324°
2026-04-29 01:34 44.52868 14.98579 38073 ft 393 kts 324°
2026-04-29 01:34 44.57522 14.94470 38070 ft 394 kts 324°
2026-04-29 01:35 44.62136 14.90391 38081 ft 392 kts 324°
2026-04-29 01:35 44.66757 14.86295 38076 ft 395 kts 324°
2026-04-29 01:36 44.71370 14.82202 38079 ft 393 kts 324°
2026-04-29 01:36 44.75999 14.78086 38079 ft 393 kts 324°
2026-04-29 01:37 44.80622 14.73964 38072 ft 393 kts 324°
2026-04-29 01:37 44.85228 14.69854 38080 ft 392 kts 324°
2026-04-29 01:38 44.89833 14.65737 38080 ft 393 kts 324°
2026-04-29 01:38 44.94426 14.61621 38081 ft 393 kts 324°
2026-04-29 01:39 44.99022 14.57495 38070 ft 392 kts 324°
2026-04-29 01:39 45.03619 14.53359 38068 ft 392 kts 324°
2026-04-29 01:40 45.08207 14.49223 38076 ft 392 kts 324°
2026-04-29 01:40 45.12817 14.45060 38076 ft 391 kts 324°
2026-04-29 01:41 45.17392 14.40919 38070 ft 392 kts 324°
2026-04-29 01:41 45.21977 14.36763 38078 ft 391 kts 324°
2026-04-29 01:42 45.26518 14.32639 38082 ft 391 kts 323°
2026-04-29 01:42 45.31118 14.28453 38080 ft 391 kts 323°
2026-04-29 01:43 45.35684 14.24291 38091 ft 390 kts 323°
2026-04-29 01:43 45.40242 14.20126 38085 ft 390 kts 323°
2026-04-29 01:44 45.44790 14.15974 38086 ft 390 kts 324°
2026-04-29 01:44 45.49585 14.12277 38092 ft 394 kts 332°
2026-04-29 01:45 45.54679 14.09373 38097 ft 395 kts 334°
2026-04-29 01:45 45.59822 14.06658 38091 ft 397 kts 335°
2026-04-29 01:46 45.64999 14.03911 38093 ft 396 kts 334°
2026-04-29 01:46 45.70145 14.01142 38092 ft 396 kts 334°
2026-04-29 01:47 45.75262 13.98362 38096 ft 395 kts 334°
2026-04-29 01:47 45.80388 13.95565 38093 ft 394 kts 334°
2026-04-29 01:48 45.85466 13.92785 38100 ft 393 kts 334°
2026-04-29 01:48 45.90598 13.89966 38098 ft 394 kts 334°
2026-04-29 01:49 45.95701 13.87159 38102 ft 395 kts 334°
2026-04-29 01:49 46.00844 13.84327 38103 ft 395 kts 334°
2026-04-29 01:50 46.05954 13.81505 38094 ft 395 kts 334°
2026-04-29 01:50 46.11061 13.78682 38090 ft 394 kts 334°
2026-04-29 01:51 46.16150 13.75861 38101 ft 394 kts 334°
2026-04-29 01:51 46.21249 13.72961 38103 ft 393 kts 332°
2026-04-29 01:52 46.26020 13.69288 38105 ft 388 kts 323°
2026-04-29 01:52 46.30447 13.64906 38105 ft 387 kts 321°
2026-04-29 01:53 46.34815 13.60361 38111 ft 386 kts 321°
2026-04-29 01:53 46.39166 13.55826 38109 ft 386 kts 321°
2026-04-29 01:54 46.43499 13.51326 38115 ft 387 kts 321°
2026-04-29 01:54 46.47882 13.46780 38117 ft 386 kts 321°
2026-04-29 01:55 46.52244 13.42254 38119 ft 387 kts 321°
2026-04-29 01:55 46.56592 13.37653 38120 ft 385 kts 318°
2026-04-29 01:56 46.60579 13.32484 38125 ft 384 kts 313°
2026-04-29 01:56 46.64377 13.27142 38131 ft 383 kts 313°
2026-04-29 01:57 46.68211 13.21758 38137 ft 383 kts 313°
2026-04-29 01:57 46.72069 13.16387 38139 ft 383 kts 313°
2026-04-29 01:58 46.75916 13.11049 38139 ft 383 kts 313°
2026-04-29 01:58 46.79770 13.05703 38144 ft 382 kts 313°
2026-04-29 01:59 46.83630 13.00341 38143 ft 383 kts 313°
2026-04-29 01:59 46.87454 12.95017 38126 ft 384 kts 313°
2026-04-29 02:00 46.91317 12.89632 38100 ft 382 kts 313°
2026-04-29 02:00 46.95155 12.84268 38103 ft 385 kts 313°
2026-04-29 02:01 46.99012 12.78867 38111 ft 383 kts 313°
2026-04-29 02:01 47.02835 12.73500 38100 ft 383 kts 313°
2026-04-29 02:02 47.06683 12.68088 38113 ft 383 kts 313°
2026-04-29 02:02 47.10540 12.62653 38136 ft 385 kts 313°
2026-04-29 02:03 47.14392 12.57213 38148 ft 384 kts 313°
2026-04-29 02:03 47.18216 12.51802 38149 ft 386 kts 313°
2026-04-29 02:04 47.22061 12.46349 38157 ft 385 kts 313°
2026-04-29 02:04 47.25921 12.40863 38036 ft 384 kts 313°
2026-04-29 02:05 47.27816 12.38167 37671 ft 379 kts 313°
2026-04-29 02:05 47.29696 12.35491 37138 ft 376 kts 313°
2026-04-29 02:05 47.31557 12.32839 36615 ft 372 kts 313°
2026-04-29 02:05 47.33412 12.30191 36142 ft 371 kts 313°
2026-04-29 02:06 47.35251 12.27562 35613 ft 371 kts 313°
2026-04-29 02:06 47.37080 12.24943 35165 ft 368 kts 313°
2026-04-29 02:06 47.38913 12.22318 34678 ft 366 kts 313°
2026-04-29 02:06 47.40723 12.19723 34169 ft 363 kts 313°
2026-04-29 02:07 47.42513 12.17156 33711 ft 359 kts 313°
2026-04-29 02:07 47.44277 12.14620 33251 ft 355 kts 313°
2026-04-29 02:07 47.46048 12.12072 32791 ft 351 kts 313°
2026-04-29 02:07 47.47762 12.09605 32348 ft 348 kts 313°
2026-04-29 02:08 47.49482 12.07128 31901 ft 344 kts 312°
2026-04-29 02:08 47.51170 12.04678 31445 ft 340 kts 311°
2026-04-29 02:08 47.52695 12.02030 31005 ft 333 kts 303°
2026-04-29 02:08 47.53795 11.99115 30587 ft 327 kts 292°
2026-04-29 02:09 47.54491 11.95956 30161 ft 323 kts 285°
2026-04-29 02:09 47.54995 11.92744 29747 ft 319 kts 283°
2026-04-29 02:09 47.55436 11.89554 29327 ft 315 kts 283°
2026-04-29 02:09 47.55859 11.86402 28907 ft 312 kts 282°
2026-04-29 02:10 47.56280 11.83288 28516 ft 310 kts 282°
2026-04-29 02:10 47.56720 11.80081 28110 ft 327 kts 282°
2026-04-29 02:10 47.57177 11.76787 27639 ft 332 kts 283°
2026-04-29 02:10 47.57637 11.73483 27208 ft 328 kts 282°
2026-04-29 02:11 47.58090 11.70217 26792 ft 324 kts 282°
2026-04-29 02:11 47.58541 11.66956 26355 ft 320 kts 282°
2026-04-29 02:11 47.58981 11.63765 25942 ft 316 kts 282°
2026-04-29 02:11 47.59413 11.60628 25528 ft 312 kts 282°
2026-04-29 02:12 47.59841 11.57512 25129 ft 307 kts 282°
2026-04-29 02:12 47.60265 11.54424 24721 ft 304 kts 282°
2026-04-29 02:12 47.60677 11.51403 24326 ft 300 kts 282°
2026-04-29 02:12 47.61084 11.48417 23933 ft 297 kts 282°
2026-04-29 02:13 47.61500 11.45363 23540 ft 309 kts 282°
2026-04-29 02:13 47.61931 11.42209 23125 ft 319 kts 282°
2026-04-29 02:13 47.62367 11.38981 22681 ft 318 kts 282°
2026-04-29 02:13 47.62767 11.35817 22262 ft 314 kts 281°
2026-04-29 02:14 47.63146 11.32689 21863 ft 310 kts 280°
2026-04-29 02:14 47.63519 11.29565 21465 ft 307 kts 280°
2026-04-29 02:14 47.63890 11.26460 21046 ft 304 kts 280°
2026-04-29 02:14 47.64257 11.23407 20651 ft 301 kts 281°
2026-04-29 02:15 47.64623 11.20360 20225 ft 299 kts 280°
2026-04-29 02:15 47.64984 11.17364 19871 ft 295 kts 280°
2026-04-29 02:15 47.65346 11.14381 19471 ft 295 kts 281°
2026-04-29 02:15 47.65705 11.11433 19068 ft 293 kts 281°
2026-04-29 02:16 47.66062 11.08470 18686 ft 290 kts 281°
2026-04-29 02:16 47.66409 11.05561 18311 ft 288 kts 280°
2026-04-29 02:16 47.66758 11.02633 17945 ft 292 kts 281°
2026-04-29 02:16 47.67121 10.99601 17517 ft 306 kts 281°
2026-04-29 02:17 47.67494 10.96492 17085 ft 306 kts 280°
2026-04-29 02:17 47.67858 10.93408 16726 ft 303 kts 280°
2026-04-29 02:17 47.68218 10.90358 16306 ft 301 kts 281°
2026-04-29 02:17 47.68576 10.87336 15921 ft 299 kts 281°
2026-04-29 02:18 47.68929 10.84328 15529 ft 298 kts 281°
2026-04-29 02:18 47.69285 10.81302 15093 ft 297 kts 281°
2026-04-29 02:18 47.69640 10.78277 14691 ft 295 kts 281°
2026-04-29 02:18 47.69982 10.75337 14325 ft 292 kts 281°
2026-04-29 02:19 47.70322 10.72373 13942 ft 291 kts 281°
2026-04-29 02:19 47.70660 10.69425 13548 ft 290 kts 281°
2026-04-29 02:19 47.70996 10.66496 13172 ft 289 kts 281°
2026-04-29 02:19 47.71336 10.63548 12784 ft 288 kts 281°
2026-04-29 02:20 47.71678 10.60629 12394 ft 288 kts 281°
2026-04-29 02:20 47.72015 10.57746 12009 ft 287 kts 281°
2026-04-29 02:20 47.72356 10.54816 11626 ft 286 kts 281°
2026-04-29 02:20 47.72688 10.51918 11248 ft 285 kts 281°
2026-04-29 02:21 47.73015 10.49049 10869 ft 284 kts 281°
2026-04-29 02:21 47.73342 10.46176 10492 ft 285 kts 281°
2026-04-29 02:21 47.73672 10.43282 10168 ft 283 kts 281°
2026-04-29 02:21 47.73998 10.40414 9955 ft 277 kts 281°
2026-04-29 02:22 47.74316 10.37601 9557 ft 279 kts 281°
2026-04-29 02:22 47.74687 10.34768 9194 ft 279 kts 285°
2026-04-29 02:22 47.75283 10.32049 8842 ft 279 kts 291°
2026-04-29 02:22 47.75998 10.29395 8491 ft 279 kts 293°
2026-04-29 02:23 47.76742 10.26728 8126 ft 279 kts 293°
2026-04-29 02:23 47.77461 10.24090 7770 ft 279 kts 292°
2026-04-29 02:23 47.78174 10.21413 7436 ft 279 kts 292°
2026-04-29 02:23 47.78885 10.18709 7056 ft 279 kts 292°
2026-04-29 02:24 47.79581 10.16044 6704 ft 279 kts 293°
2026-04-29 02:24 47.80279 10.13378 6351 ft 278 kts 292°
2026-04-29 02:24 47.80999 10.10766 6212 ft 267 kts 297°
2026-04-29 02:25 47.83332 10.07073 5912 ft 232 kts 335°
2026-04-29 02:25 47.84722 10.06003 5605 ft 224 kts 337°
2026-04-29 02:25 47.86072 10.04933 5321 ft 215 kts 336°
2026-04-29 02:25 47.87341 10.03856 5079 ft 205 kts 336°
2026-04-29 02:26 47.88609 10.03061 4886 ft 188 kts 356°
2026-04-29 02:26 47.89820 10.03215 4714 ft 167 kts 29°
2026-04-29 02:26 47.90779 10.04080 4598 ft 160 kts 44°
2026-04-29 02:26 47.91506 10.05220 4437 ft 145 kts 62°
2026-04-29 02:27 47.91987 10.06535 4314 ft 143 kts 64°
2026-04-29 02:27 47.92486 10.07816 4205 ft 144 kts 62°
2026-04-29 02:27 47.92976 10.09042 4088 ft 135 kts 63°
2026-04-29 02:27 47.93433 10.10199 3980 ft 126 kts 63°
2026-04-29 02:28 47.93879 10.11326 3984 ft 126 kts 63°
2026-04-29 02:28 47.94334 10.12449 3993 ft 126 kts 62°
2026-04-29 02:28 47.94793 10.13571 3974 ft 129 kts 63°
2026-04-29 02:28 47.95271 10.14742 3546 ft 136 kts 63°
2026-04-29 02:29 47.95720 10.15973 3072 ft 132 kts 67°
2026-04-29 02:29 47.96158 10.17121 2856 ft 129 kts 59°
2026-04-29 02:29 47.96643 10.18236 2832 ft 127 kts 62°
2026-04-29 02:29 47.97064 10.19405 2620 ft 129 kts 62°
2026-04-29 02:30 47.97520 10.20539 2440 ft 128 kts 59°
2026-04-29 02:30 47.97977 10.21697 2240 ft 129 kts 59°
2026-04-29 02:30 47.98430 10.22805 2078 ft 121 kts 58°
2026-04-29 02:30 47.98767 10.23650 2067 ft 59 kts 61°
2026-04-29 02:31 47.98896 10.23720 2063 ft 10 kts 295°
2026-04-29 02:31 47.98909 10.23664 2063 ft 8 kts 275°
2026-04-29 02:31 47.98902 10.23588 2064 ft 6 kts 249°
2026-04-29 02:31 47.98886 10.23525 2065 ft 6 kts 249°
2026-04-29 02:32 47.98868 10.23450 2066 ft 7 kts 250°
2026-04-29 02:32 47.98854 10.23391 2067 ft 4 kts 251°
2026-04-29 02:32 47.98846 10.23353 2068 ft 2 kts 250°
2026-04-29 02:32 47.98838 10.23319 2069 ft 5 kts 250°
2026-04-29 02:33 47.98821 10.23257 2069 ft 5 kts 250°
2026-04-29 02:33 47.98829 10.23233 2069 ft 2 kts
2026-04-29 02:33 47.98852 10.23248 2069 ft 3 kts 21°
2026-04-29 02:33 47.98875 10.23264 2069 ft 0 kts 25°
2026-04-29 02:34 47.98879 10.23267 2069 ft 1 kts 25°
2026-04-29 02:34 47.98880 10.23268 2069 ft 0 kts 25°